User: anonymous   Login
Location: Cimarron National Grasslands
(37.1250°N, 101.7500°W)
Time: 12:24:31
(UTC-05:00)
Language:

Ariane Rocket - Orbit

View from above orbital plane
View from above orbital plane
View from above satellite
View from above satellite

Ground track
Ground track

The orbit data is extracted from the following two-line orbital elements,

1 23561U 95021B   17295.96488576 +.00000045 +00000-0 +30184-4 0  9990
2 23561 098.7969 300.1306 0006023 236.8569 180.5526 14.37838183179392
Epoch (UTC): 22 October 2017 23:09:26
Eccentricity: 0.0006023
inclination: 98.7969°
perigee height: 761 km
apogee height: 770 km
right ascension of ascending node: 300.1306°
argument of perigee: 236.8569°
revolutions per day: 14.37838183
mean anomaly at epoch: 180.5526°
orbit number at epoch: 17939

The dashed part of the orbit path shows where the satellite is in the earth's shadow,  

DLR